• In Uzbekistan
  • List of Countries
  • For 7 days
  • Water Temperature
  • Satellite Maps
  • Weather Map
  • Weather Widgets
  • user-avatar
    Login

    Hourly Weather Kunming

    Today, 20 January, Sunday

    Time Temperature Precipitation Wind Pressure Humidity
    00:00 +6°C° 0 mm 1 mps 588 mmHg 86%
    01:00 +4°C° 0 mm 0 mps 588 mmHg 87%
    02:00 +4°C° 0 mm 0 mps 588 mmHg 88%
    03:00 +4°C° 0 mm 0 mps 588 mmHg 89%
    04:00 +3°C° 0 mm 0 mps 588 mmHg 90%
    05:00 +3°C° 0 mm 0 mps 589 mmHg 91%
    06:00 +3°C° 0 mm 0 mps 589 mmHg 91%
    07:00 +4°C° 0 mm 1 mps 589 mmHg 94%
    08:00 +7°C° 0 mm 1 mps 591 mmHg 84%
    09:00 +9°C° 0 mm 2 mps 592 mmHg 75%
    10:00 +12°C° 0 mm 2 mps 593 mmHg 65%
    11:00 +12°C° 0 mm 3 mps 593 mmHg 58%
    12:00 +13°C° 0 mm 3 mps 593 mmHg 50%
    13:00 +14°C° 0 mm 4 mps 593 mmHg 44%
    14:00 +14°C° 0 mm 4 mps 592 mmHg 45%
    15:00 +14°C° 0 mm 4 mps 592 mmHg 45%
    16:00 +14°C° 0 mm 4 mps 591 mmHg 46%
    17:00 +12°C° 0.1 mm 3 mps 591 mmHg 55%
    18:00 +10°C° 0.1 mm 2 mps 590 mmHg 64%
    19:00 +8°C° 0.1 mm 2 mps 590 mmHg 73%
    20:00 +8°C° 0.1 mm 1 mps 590 mmHg 76%
    21:00 +8°C° 0.1 mm 1 mps 590 mmHg 80%
    22:00 +7°C° 0.1 mm 1 mps 590 mmHg 83%
    23:00 +7°C° 0.2 mm 1 mps 590 mmHg 85%

    Tomorrow, 21 January, Monday

    Time Temperature Precipitation Wind Pressure Humidity
    00:00 +7°C° 0.2 mm 1 mps 590 mmHg 88%
    01:00 +6°C° 0.2 mm 1 mps 591 mmHg 90%
    02:00 +6°C° 0.2 mm 1 mps 590 mmHg 91%
    03:00 +6°C° 0.2 mm 1 mps 590 mmHg 92%
    04:00 +6°C° 0.2 mm 1 mps 590 mmHg 94%
    05:00 +6°C° 0.1 mm 1 mps 590 mmHg 94%
    06:00 +5°C° 0.1 mm 1 mps 590 mmHg 95%
    07:00 +5°C° 0.1 mm 1 mps 591 mmHg 95%
    08:00 +7°C° 0.2 mm 1 mps 592 mmHg 89%
    09:00 +8°C° 0.2 mm 2 mps 593 mmHg 83%
    10:00 +10°C° 0.2 mm 2 mps 594 mmHg 77%
    11:00 +11°C° 0.2 mm 3 mps 594 mmHg 70%
    12:00 +12°C° 0.2 mm 3 mps 594 mmHg 64%
    13:00 +13°C° 0.2 mm 3 mps 593 mmHg 57%
    14:00 +13°C° 0.1 mm 3 mps 593 mmHg 57%
    15:00 +13°C° 0.1 mm 3 mps 592 mmHg 57%
    16:00 +13°C° 0.1 mm 3 mps 592 mmHg 58%
    17:00 +11°C° 0.1 mm 3 mps 591 mmHg 67%
    18:00 +9°C° 0.1 mm 2 mps 591 mmHg 76%
    19:00 +8°C° 0.1 mm 2 mps 590 mmHg 85%
    20:00 +7°C° 0 mm 2 mps 591 mmHg 87%
    21:00 +8°C° 0 mm 1 mps 591 mmHg 90%
    22:00 +7°C° 0 mm 1 mps 591 mmHg 93%
    23:00 +7°C° 0 mm 1 mps 591 mmHg 94%

    Day after tomorrow, 22 January, Tuesday

    Time Temperature Precipitation Wind Pressure Humidity
    00:00 +6°C° 0 mm 1 mps 590 mmHg 95%
    01:00 +6°C° 0 mm 1 mps 590 mmHg 95%
    02:00 +6°C° 0 mm 1 mps 590 mmHg 95%
    03:00 +6°C° 0 mm 1 mps 590 mmHg 95%
    04:00 +6°C° 0 mm 1 mps 590 mmHg 95%
    05:00 +6°C° 0 mm 1 mps 590 mmHg 95%
    06:00 +7°C° 0 mm 1 mps 591 mmHg 95%
    07:00 +7°C° 0 mm 1 mps 591 mmHg 94%
    08:00 +8°C° 0 mm 1 mps 592 mmHg 89%
    09:00 +9°C° 0 mm 2 mps 593 mmHg 84%
    10:00 +10°C° 0 mm 2 mps 594 mmHg 78%
    11:00 +11°C° 0 mm 3 mps 593 mmHg 73%
    12:00 +12°C° 0 mm 3 mps 593 mmHg 67%
    13:00 +13°C° 0 mm 3 mps 593 mmHg 61%
    14:00 +13°C° 0 mm 4 mps 592 mmHg 60%
    15:00 +13°C° 0 mm 4 mps 592 mmHg 58%
    16:00 +14°C° 0 mm 4 mps 591 mmHg 57%
    17:00 +12°C° 0 mm 3 mps 591 mmHg 66%
    18:00 +10°C° 0 mm 3 mps 590 mmHg 76%
    19:00 +8°C° 0 mm 2 mps 590 mmHg 86%
    20:00 +7°C° 0 mm 2 mps 590 mmHg 88%
    21:00 +7°C° 0 mm 2 mps 590 mmHg 90%
    22:00 +7°C° 0 mm 1 mps 590 mmHg 92%
    23:00 +7°C° 0 mm 1 mps 590 mmHg 93%

    23 January, Wednesday

    Time Temperature Precipitation Wind Pressure Humidity
    00:00 +7°C° 0 mm 1 mps 590 mmHg 94%
    01:00 +6°C° 0 mm 1 mps 589 mmHg 94%
    02:00 +6°C° 0 mm 1 mps 589 mmHg 95%
    03:00 +6°C° 0 mm 1 mps 589 mmHg 96%
    04:00 +6°C° 0 mm 1 mps 589 mmHg 97%
    05:00 +6°C° 0 mm 1 mps 589 mmHg 97%
    06:00 +7°C° 0 mm 1 mps 590 mmHg 96%
    07:00 +7°C° 0 mm 1 mps 590 mmHg 96%
    08:00 +8°C° 0.1 mm 1 mps 591 mmHg 93%
    09:00 +7°C° 0.1 mm 2 mps 591 mmHg 89%
    10:00 +8°C° 0.1 mm 2 mps 592 mmHg 86%
    11:00 +9°C° 0 mm 2 mps 592 mmHg 79%
    12:00 +11°C° 0 mm 3 mps 592 mmHg 71%
    13:00 +12°C° 0 mm 3 mps 591 mmHg 64%
    14:00 +13°C° 0 mm 3 mps 591 mmHg 60%
    15:00 +14°C° 0 mm 4 mps 591 mmHg 57%
    16:00 +14°C° 0 mm 4 mps 591 mmHg 53%
    17:00 +12°C° 0 mm 3 mps 590 mmHg 62%
    18:00 +10°C° 0 mm 3 mps 590 mmHg 71%
    19:00 +8°C° 0 mm 2 mps 589 mmHg 80%
    20:00 +8°C° 0 mm 2 mps 589 mmHg 83%
    21:00 +7°C° 0 mm 2 mps 589 mmHg 86%
    22:00 +7°C° 0 mm 1 mps 589 mmHg 89%
    23:00 +7°C° 0 mm 1 mps 589 mmHg 90%

    24 January, Thursday

    Time Temperature Precipitation Wind Pressure Humidity
    00:00 +6°C° 0 mm 1 mps 589 mmHg 91%
    01:00 +6°C° 0 mm 1 mps 588 mmHg 92%
    02:00 +6°C° 0 mm 1 mps 588 mmHg 93%
    03:00 +5°C° 0 mm 1 mps 588 mmHg 93%
    04:00 +5°C° 0 mm 1 mps 588 mmHg 94%
    05:00 +5°C° 0 mm 1 mps 588 mmHg 95%
    06:00 +4°C° 0 mm 1 mps 588 mmHg 96%
    07:00 +4°C° 0 mm 1 mps 588 mmHg 97%
    08:00 +6°C° 0 mm 1 mps 590 mmHg 90%
    09:00 +8°C° 0 mm 2 mps 591 mmHg 83%
    10:00 +10°C° 0 mm 2 mps 592 mmHg 76%
    11:00 +12°C° 0 mm 3 mps 592 mmHg 64%
    12:00 +14°C° 0 mm 4 mps 592 mmHg 51%
    13:00 +15°C° 0 mm 5 mps 592 mmHg 39%
    14:00 +16°C° 0 mm 5 mps 591 mmHg 38%
    15:00 +16°C° 0 mm 5 mps 591 mmHg 36%
    16:00 +16°C° 0 mm 5 mps 591 mmHg 35%
    17:00 +13°C° 0 mm 4 mps 590 mmHg 44%
    18:00 +11°C° 0 mm 3 mps 590 mmHg 52%
    19:00 +9°C° 0 mm 2 mps 589 mmHg 61%
    20:00 +8°C° 0 mm 2 mps 589 mmHg 65%
    21:00 +8°C° 0 mm 1 mps 590 mmHg 70%
    22:00 +7°C° 0 mm 1 mps 590 mmHg 75%
    23:00 +7°C° 0 mm 1 mps 589 mmHg 77%

    25 January, Friday

    Time Temperature Precipitation Wind Pressure Humidity
    00:00 +6°C° 0 mm 1 mps 589 mmHg 79%
    01:00 +5°C° 0 mm 0 mps 589 mmHg 81%
    02:00 +4°C° 0 mm 0 mps 589 mmHg 82%
    03:00 +4°C° 0 mm 0 mps 589 mmHg 83%
    04:00 +4°C° 0 mm 0 mps 588 mmHg 84%
    05:00 +3°C° 0 mm 0 mps 589 mmHg 85%
    06:00 +3°C° 0 mm 0 mps 589 mmHg 86%
    07:00 +3°C° 0 mm 0 mps 590 mmHg 87%
    08:00 +6°C° 0 mm 0 mps 591 mmHg 75%
    09:00 +11°C° 0 mm 1 mps 593 mmHg 63%
    10:00 +14°C° 0 mm 1 mps 595 mmHg 51%
    11:00 +15°C° 0 mm 1 mps 595 mmHg 44%
    12:00 +17°C° 0 mm 2 mps 595 mmHg 38%
    13:00 +18°C° 0 mm 2 mps 594 mmHg 32%
    14:00 +18°C° 0 mm 2 mps 594 mmHg 33%
    15:00 +18°C° 0 mm 3 mps 593 mmHg 34%
    16:00 +18°C° 0 mm 3 mps 593 mmHg 35%
    17:00 +15°C° 0 mm 2 mps 592 mmHg 43%
    18:00 +13°C° 0 mm 2 mps 592 mmHg 51%
    19:00 +10°C° 0 mm 1 mps 591 mmHg 60%
    20:00 +10°C° 0 mm 1 mps 592 mmHg 62%
    21:00 +9°C° 0 mm 1 mps 592 mmHg 65%
    22:00 +8°C° 0 mm 1 mps 592 mmHg 67%
    23:00 +8°C° 0 mm 1 mps 592 mmHg 69%
    Show more